Powrót do katalogu

FREGAT DEB

AktywnyUNKNOWN
NORAD 45843·DEBRIS·🇷🇺 Russia

Wystrzelony Jul 18, 2011 z Baikonur Cosmodrome

Loading…

Następne Przeloty (najbliższe 24 godziny)

TLE

ŚwieżeSource: Space-Track

Epoka: Sep 14, 2026, 09:09 UTC

1 45843U 11037CD  26257.38125553  .00002107  00000-0  18181-1 0  9990
2 45843  51.2297 258.0772 1702859 171.1332 192.4037 10.26762891 53818

Śledź FREGAT DEB w czasie rzeczywistym z AllMySat

Download on the App Store